• Join FlightAware (Why Join?)
  • Login
  • US Flag 
04:49PM EST


 

Airport Tracker/Info


-or-


 

Live Flight TrackerFlight Track Log ✈ N983CE ✈ 25-Jun-2013 ✈ KATW - KPTK

Flight Track Log - Related Links

Times and Time Zones

All times are in EDT time to prevent confusion due to time zone crossing. See the N983CE flight status page for this flight to view local times or setup timezone preferences in your user account.

Time Position Orientation Groundspeed Altitude Reporting Facility
EDT Latitude Longitude Course Direction KTS MPH feet Rate Location/Type
03:07PM 44.1692 -88.4256 126° Southeast 256 295 6,500  Level Chicago Center
03:08PM 44.1247 -88.3392 126° Southeast 262 302 8,800 1,190 Climbing Minneapolis Center
03:09PM 44.0767 -88.2489 127° Southeast 284 327 8,900 290 Climbing Minneapolis Center
03:10PM 44.0400 -88.1475 117° Southeast 294 338 9,400 1,125 Climbing Minneapolis Center
03:11PM 44.0181 -88.0169 103° East 296 341 11,300 2,156 Climbing Chicago Center
03:12PM 43.9961 -87.8989 104° East 311 358 14,000 2,419 Climbing Chicago Center
03:13PM 43.9725 -87.7722 104° East 335 386 16,300 2,364 Climbing Chicago Center
03:14PM 43.9439 -87.6186 104° East 347 399 19,200 2,273 Climbing Minneapolis Center
03:15PM 43.9192 -87.4833 104° East 357 411 21,300 1,839 Climbing Minneapolis Center
03:16PM 43.8883 -87.3169 104° East 377 434 23,000 1,161 Climbing Minneapolis Center
03:17PM 43.8619 -87.1831 105° East 412 474 23,700 983 Climbing Minneapolis Center
03:18PM 43.8328 -87.0258 104° East 422 486 24,900 667 Climbing Chicago Center
03:19PM 43.8017 -86.8622 105° East 436 502 25,000 48 Climbing Chicago Center
03:20PM 43.7717 -86.7047 105° East 428 493 25,000  Level Chicago Center
03:21PM 43.7411 -86.5467 105° East 425 489 25,000  Level Chicago Center
03:22PM 43.7042 -86.3586 105° East 423 487 25,000  Level Chicago Center
03:23PM 43.6733 -86.2025 105° East 421 484 25,000  Level Chicago Center
03:24PM 43.6425 -86.0469 105° East 420 483 25,000  Level Chicago Center
03:25PM 43.6097 -85.8900 106° East 422 486 25,000  Level Chicago Center
03:26PM 43.5550 -85.7475 118° Southeast 417 480 25,000  Level Chicago Center
03:27PM 43.4914 -85.6108 123° Southeast 422 486 25,000 -387 Level Chicago Center
03:28PM 43.4267 -85.4736 123° Southeast 424 488 24,200 -1,597 Descending Chicago Center
03:29PM 43.3494 -85.3128 123° Southeast 418 481 21,700 -1,548 Descending Chicago Center
03:30PM 43.2886 -85.1861 123° Southeast 399 459 21,000 -339 Descending Chicago Center
03:31PM 43.2314 -85.0669 123° Southeast 376 433 21,000  Level Chicago Center
03:32PM 43.1747 -84.9486 123° Southeast 370 426 21,000 -432 Level Chicago Center
03:33PM 43.1183 -84.8339 124° Southeast 363 418 20,100 -1,824 Descending Chicago Center
03:34PM 43.0592 -84.7108 123° Southeast 381 438 17,200 -2,806 Descending Chicago Center
03:36PM 42.9842 -84.5586 124° Southeast 399 459 14,300 -2,371 Descending Chicago Center
03:37PM 42.9217 -84.4314 124° Southeast 403 464 12,300 -1,597 Descending Chicago Center
03:38PM 42.8619 -84.3108 124° Southeast 388 447 11,000 -1,239 Descending Chicago Center
03:38PM 42.8289 -84.2553 129° Southeast 381 438 10,400 -1,267 Descending Cleveland Center
03:39PM 42.7861 -84.1594 121° Southeast 336 387 9,100 -1,400 Descending Cleveland Center
03:40PM 42.7369 -84.0633 125° Southeast 316 364 7,600 -1,600 Descending Cleveland Center
03:41PM 42.7111 -83.9458 107° East 297 342 5,900 -1,550 Descending Cleveland Center
03:42PM 42.7103 -83.8328 91° East 297 342 4,500 -1,300 Descending Cleveland Center
03:43PM 42.7003 -83.7392 98° East 286 329 3,300 -750 Descending Cleveland Center
03:44PM 42.6864 -83.6422 101° East 253 291 3,000 -250 Descending Cleveland Center
03:45PM 42.6800 -83.5714 97° East 216 249 2,800 -275 Descending Cleveland Center
03:46PM 42.6631 -83.4972 107° East 178 205 2,400 -131 Descending Cleveland Center
03:47PM 42.6353 -83.4394 123° Southeast 164 189 2,500 -43 Climbing Cleveland Center
03:49PM 42.6311 -83.3572 94° East 188 216 2,300 -344 Descending Cleveland Center
03:49PM 42.6642 -83.3700 344° North 166 191 1,800 -612 Descending Cleveland Center
03:51PM 42.6500 -83.4167 304° West  Level FlightAware Approximate
03:58PM 42.6656 -83.4205 304° West  Level Estimated